• In Russia
  • List of Countries
  • For 7 days
  • Water Temperature
  • Satellite Maps
  • Weather Map
  • Weather Widgets
  • user-avatar
    Login

    Hourly Weather A'ali

    Today, 17 August, Thursday

    Time Temperature Precipitation Wind Pressure Humidity
    00:00 +38°C° 0 mm 4 mps 749 mmHg 59%
    01:00 +37°C° 0 mm 4 mps 749 mmHg 61%
    02:00 +37°C° 0 mm 4 mps 749 mmHg 63%
    03:00 +37°C° 0 mm 5 mps 749 mmHg 67%
    04:00 +37°C° 0 mm 4 mps 749 mmHg 66%
    05:00 +37°C° 0 mm 4 mps 750 mmHg 66%
    06:00 +37°C° 0 mm 3 mps 750 mmHg 65%
    07:00 +38°C° 0 mm 3 mps 750 mmHg 58%
    08:00 +39°C° 0 mm 2 mps 750 mmHg 51%
    09:00 +40°C° 0 mm 1 mps 750 mmHg 48%
    10:00 +41°C° 0 mm 2 mps 750 mmHg 44%
    11:00 +43°C° 0 mm 3 mps 750 mmHg 41%
    12:00 +44°C° 0 mm 3 mps 750 mmHg 37%
    13:00 +44°C° 0 mm 4 mps 749 mmHg 39%
    14:00 +45°C° 0 mm 5 mps 749 mmHg 42%
    15:00 +45°C° 0 mm 5 mps 748 mmHg 44%
    16:00 +43°C° 0 mm 5 mps 748 mmHg 47%
    17:00 +42°C° 0 mm 5 mps 748 mmHg 50%
    18:00 +41°C° 0 mm 4 mps 748 mmHg 53%
    19:00 +41°C° 0 mm 4 mps 749 mmHg 54%
    20:00 +40°C° 0 mm 4 mps 749 mmHg 55%
    21:00 +40°C° 0 mm 4 mps 749 mmHg 56%
    22:00 +38°C° 0 mm 4 mps 749 mmHg 58%
    23:00 +38°C° 0 mm 3 mps 749 mmHg 61%

    Tomorrow, 18 August, Friday

    Time Temperature Precipitation Wind Pressure Humidity
    00:00 +37°C° 0 mm 3 mps 749 mmHg 64%
    01:00 +37°C° 0 mm 3 mps 748 mmHg 64%
    02:00 +37°C° 0 mm 2 mps 748 mmHg 64%
    03:00 +37°C° 0 mm 2 mps 748 mmHg 64%
    04:00 +36°C° 0 mm 1 mps 749 mmHg 62%
    05:00 +36°C° 0 mm 1 mps 749 mmHg 61%
    06:00 +34°C° 0 mm 0 mps 749 mmHg 59%
    07:00 +37°C° 0 mm 1 mps 750 mmHg 55%
    08:00 +39°C° 0 mm 1 mps 750 mmHg 50%
    09:00 +40°C° 0 mm 1 mps 750 mmHg 46%
    10:00 +41°C° 0 mm 2 mps 750 mmHg 42%
    11:00 +42°C° 0 mm 2 mps 750 mmHg 39%
    12:00 +42°C° 0 mm 2 mps 750 mmHg 35%
    13:00 +44°C° 0 mm 3 mps 749 mmHg 34%
    14:00 +44°C° 0 mm 4 mps 749 mmHg 33%
    15:00 +45°C° 0 mm 4 mps 748 mmHg 32%
    16:00 +43°C° 0 mm 4 mps 748 mmHg 37%
    17:00 +42°C° 0 mm 4 mps 748 mmHg 41%
    18:00 +41°C° 0 mm 4 mps 748 mmHg 46%
    19:00 +39°C° 0 mm 3 mps 748 mmHg 47%
    20:00 +39°C° 0 mm 3 mps 748 mmHg 48%
    21:00 +38°C° 0 mm 2 mps 749 mmHg 50%
    22:00 +38°C° 0 mm 2 mps 748 mmHg 50%
    23:00 +37°C° 0 mm 1 mps 748 mmHg 50%

    Day after tomorrow, 19 August, Saturday

    Time Temperature Precipitation Wind Pressure Humidity
    00:00 +36°C° 0 mm 1 mps 748 mmHg 51%
    01:00 +36°C° 0 mm 1 mps 748 mmHg 51%
    02:00 +35°C° 0 mm 1 mps 748 mmHg 51%
    03:00 +35°C° 0 mm 1 mps 748 mmHg 52%
    04:00 +35°C° 0 mm 1 mps 748 mmHg 51%
    05:00 +35°C° 0 mm 1 mps 748 mmHg 50%
    06:00 +37°C° 0 mm 2 mps 748 mmHg 49%
    07:00 +38°C° 0 mm 2 mps 749 mmHg 45%
    08:00 +39°C° 0 mm 2 mps 749 mmHg 41%
    09:00 +42°C° 0 mm 3 mps 749 mmHg 37%
    10:00 +43°C° 0 mm 3 mps 749 mmHg 34%
    11:00 +43°C° 0 mm 2 mps 749 mmHg 31%
    12:00 +46°C° 0 mm 2 mps 749 mmHg 27%
    13:00 +46°C° 0 mm 3 mps 748 mmHg 27%
    14:00 +47°C° 0 mm 4 mps 748 mmHg 27%
    15:00 +47°C° 0 mm 4 mps 748 mmHg 27%
    16:00 +45°C° 0 mm 4 mps 748 mmHg 30%
    17:00 +44°C° 0 mm 4 mps 748 mmHg 32%
    18:00 +42°C° 0 mm 3 mps 748 mmHg 35%
    19:00 +42°C° 0 mm 3 mps 748 mmHg 36%
    20:00 +40°C° 0 mm 2 mps 748 mmHg 36%
    21:00 +40°C° 0 mm 1 mps 749 mmHg 37%
    22:00 +39°C° 0 mm 2 mps 748 mmHg 37%
    23:00 +39°C° 0 mm 3 mps 748 mmHg 38%

    20 August, Sunday

    Time Temperature Precipitation Wind Pressure Humidity
    00:00 +40°C° 0 mm 4 mps 748 mmHg 38%
    01:00 +38°C° 0 mm 3 mps 748 mmHg 43%
    02:00 +38°C° 0 mm 3 mps 748 mmHg 47%
    03:00 +37°C° 0 mm 3 mps 748 mmHg 52%
    04:00 +37°C° 0 mm 2 mps 748 mmHg 51%
    05:00 +37°C° 0 mm 2 mps 749 mmHg 51%
    06:00 +36°C° 0 mm 1 mps 749 mmHg 50%
    07:00 +38°C° 0 mm 2 mps 749 mmHg 46%
    08:00 +40°C° 0 mm 2 mps 749 mmHg 42%
    09:00 +41°C° 0 mm 2 mps 750 mmHg 37%
    10:00 +42°C° 0 mm 2 mps 749 mmHg 36%
    11:00 +42°C° 0 mm 2 mps 749 mmHg 35%
    12:00 +44°C° 0 mm 3 mps 749 mmHg 34%
    13:00 +44°C° 0 mm 3 mps 748 mmHg 34%
    14:00 +45°C° 0 mm 4 mps 748 mmHg 34%
    15:00 +46°C° 0 mm 5 mps 748 mmHg 34%
    16:00 +46°C° 0 mm 5 mps 748 mmHg 35%
    17:00 +45°C° 0 mm 5 mps 747 mmHg 36%
    18:00 +43°C° 0 mm 5 mps 747 mmHg 37%
    19:00 +43°C° 0 mm 5 mps 748 mmHg 37%
    20:00 +42°C° 0 mm 4 mps 748 mmHg 37%
    21:00 +42°C° 0 mm 4 mps 748 mmHg 37%
    22:00 +41°C° 0 mm 4 mps 748 mmHg 37%
    23:00 +41°C° 0 mm 4 mps 748 mmHg 37%

    21 August, Monday

    Time Temperature Precipitation Wind Pressure Humidity
    00:00 +40°C° 0 mm 4 mps 748 mmHg 37%
    01:00 +40°C° 0 mm 4 mps 748 mmHg 41%
    02:00 +38°C° 0 mm 3 mps 748 mmHg 44%
    03:00 +38°C° 0 mm 3 mps 747 mmHg 47%
    04:00 +38°C° 0 mm 3 mps 748 mmHg 49%
    05:00 +37°C° 0 mm 3 mps 748 mmHg 51%
    06:00 +37°C° 0 mm 3 mps 748 mmHg 52%
    07:00 +39°C° 0 mm 3 mps 749 mmHg 47%
    08:00 +40°C° 0 mm 3 mps 749 mmHg 41%
    09:00 +41°C° 0 mm 2 mps 749 mmHg 36%
    10:00 +42°C° 0 mm 2 mps 749 mmHg 32%
    11:00 +43°C° 0 mm 2 mps 748 mmHg 29%
    12:00 +45°C° 0 mm 2 mps 748 mmHg 26%
    13:00 +46°C° 0 mm 2 mps 748 mmHg 25%
    14:00 +46°C° 0 mm 3 mps 747 mmHg 24%
    15:00 +47°C° 0 mm 4 mps 747 mmHg 23%
    16:00 +45°C° 0 mm 4 mps 747 mmHg 26%
    17:00 +45°C° 0 mm 5 mps 747 mmHg 29%
    18:00 +43°C° 0 mm 5 mps 747 mmHg 31%
    19:00 +43°C° 0 mm 5 mps 747 mmHg 32%
    20:00 +42°C° 0 mm 4 mps 747 mmHg 34%
    21:00 +42°C° 0 mm 4 mps 748 mmHg 35%
    22:00 +41°C° 0 mm 4 mps 747 mmHg 35%
    23:00 +41°C° 0 mm 4 mps 747 mmHg 35%

    22 August, Tuesday

    Time Temperature Precipitation Wind Pressure Humidity
    00:00 +39°C° 0 mm 3 mps 747 mmHg 36%
    01:00 +39°C° 0 mm 3 mps 747 mmHg 37%
    02:00 +38°C° 0 mm 3 mps 746 mmHg 38%
    03:00 +38°C° 0 mm 3 mps 746 mmHg 39%
    04:00 +38°C° 0 mm 3 mps 747 mmHg 38%
    05:00 +38°C° 0 mm 3 mps 747 mmHg 38%
    06:00 +38°C° 0 mm 3 mps 747 mmHg 37%
    07:00 +39°C° 0 mm 2 mps 748 mmHg 34%
    08:00 +40°C° 0 mm 2 mps 748 mmHg 30%
    09:00 +42°C° 0 mm 2 mps 748 mmHg 27%
    10:00 +42°C° 0 mm 2 mps 748 mmHg 25%
    11:00 +43°C° 0 mm 2 mps 747 mmHg 23%
    12:00 +44°C° 0 mm 1 mps 747 mmHg 21%
    13:00 +45°C° 0 mm 2 mps 747 mmHg 21%
    14:00 +47°C° 0 mm 4 mps 746 mmHg 20%
    15:00 +47°C° 0 mm 5 mps 746 mmHg 20%
    16:00 +46°C° 0 mm 5 mps 746 mmHg 24%
    17:00 +45°C° 0 mm 5 mps 746 mmHg 28%
    18:00 +44°C° 0 mm 6 mps 746 mmHg 33%
    19:00 +42°C° 0 mm 5 mps 747 mmHg 34%
    20:00 +42°C° 0 mm 5 mps 747 mmHg 35%
    21:00 +41°C° 0 mm 5 mps 747 mmHg 36%
    22:00 +41°C° 0 mm 5 mps 747 mmHg 37%
    23:00 +40°C° 0 mm 4 mps 747 mmHg 37%
    Show more